Regional Weather Roundup
Issued by NWS New Orleans/Baton Rouge, LA

Home | Current Version | Previous Version | Text Only | Print | Product List | Glossary On
Versions: 1 2 3 4 5 6 7 8 9 10 11 12 13 14 15 16 17 18 19 20 21 22 23 24 25 26 27 28 29 30 31 32 33 34 35 36 37 38 39 40 41 42 43 44 45 46 47 48 49 50
706
ASUS44 KLIX 281905
RWRLIX
NEW ORLEANS REGIONAL WEATHER ROUNDUP
NATIONAL WEATHER SERVICE NEW ORLEANS LA
100 PM CST FRI NOV 28 2014

NOTE: "FAIR" INDICATES FEW OR NO CLOUDS BELOW 12,000 FEET WITH NO
      SIGNIFICANT WEATHER AND/OR OBSTRUCTIONS TO VISIBILITY.
      SKY/WX - SKY CONDITION AND SIGNIFICANT WEATHER.
      TMP - AIR TEMPERATURE.     DP    - DEWPOINT TEMPERATURE.
      RH  - RELATIVE HUMIDITY.   PRES  - PRESSURE.
      HI  - HEAT INDEX.          WCI   - WIND CHILL INDEX.

*  THESE STATIONS ARE NOT NWS OR FAA STATIONS AND ARE NOT UNDER
   NWS QUALITY CONTROL.

LAZ038-040-048-061>063-065>067-069-282000-
SOUTHEAST LOUISIANA

CITY           SKY/WX    TMP DP  RH WIND       PRES   REMARKS
N.O. AUDUBON     N/A     59  42  52 MISG        N/A
N.O. INTL ARPT MOSUNNY   59  37  44 E3        30.34F
N.O. LAKEFRONT SUNNY     56  40  55 E8        30.36F
N.O. DOWNTOWN*   N/A     55  39  54 NE8       30.35F
SLIDELL        SUNNY     60  29  30 VRB5      30.34F
BATON ROUGE    SUNNY     59  32  36 VRB6      30.33F
BOOTHVILLE     SUNNY     59  47  64 NE8       30.35F
BELLE CHASSE   SUNNY     59  37  44 VRB5      30.34F
BOGALUSA*        N/A     60  25  26 SE3       30.36F
NEW ROADS*       N/A     59  31  35 SE8       30.33F
GONZALES*        N/A     60  34  37 S6        30.33F
HAMMOND*       SUNNY     59  25  27 SE6       30.36F
HOUMA*         SUNNY     61  43  51 N5        30.34F
PORT FOURCHON* CLEAR     59  46  63 E9        30.37F

$$

MSZ070-080>082-282000-
SOUTHERN MISSISSIPPI

CITY           SKY/WX    TMP DP  RH WIND       PRES   REMARKS
MCCOMB         SUNNY     56  26  31 VRB5      30.33F
GULFPORT       SUNNY     54  33  45 SE6       30.35F
BILOXI         SUNNY     54  35  48 S6        30.35F
PASCAGOULA     SUNNY     58  26  29 CALM      30.35F
STENNIS ARPT*  SUNNY     57  21  24 E6        30.35F

$$

COASTAL OBSERVATIONS
LAKE AND NEARSHORE STATIONS

STATION/POSITION TIME  TEMP    WIND        PRES    WAVE
                       AIR SEA DIR/SP/G            HT/PER
                 (UTC) (F)     (DEG/KT/KT) (MB)    (FT/S)
PASCAGOULA       1900   54     160/  8/ 10 1027.5
WAVELAND YACHT   1900   48     160/  9/ 11 1027.3
GRAND ISLE       1900   58 58   80/  7/ 12 1027.9
SOUTHWEST PASS   1900   68                 1027.4
NEW CANAL        1900   53 54   70/  7/ 10 1028.1
SHELL BEACH      1900   53 51   80/  9/ 12 1027.6

OFFSHORE STATIONS

STATION/POSITION TIME  TEMP    WIND        PRES    WAVE
                       AIR SEA DIR/SP/G            HT/PER
                 (UTC) (F)     (DEG/KT/KT) (MB)    (FT/S)
64 S DAUPHIN ISL 1808   57 72   80/ 10/ 16 1027.7    3/ 5

$$




USA.gov is the U.S. government's official web portal to all federal, state and local government web resources and services.